一网星座-0325星 (ONEWEB-0325 )

导读 | 豆包AI

ONEWEB-025由英国(GB)于2021年9月14日发射,属于OneWeb低轨卫星互联网星座的组网卫星。OneWeb星座旨在为全球提供宽带互联网接入服务,该卫星入轨后承担覆盖补充,提升星座在特定区域网络容量,服务海上、航空等偏远区域通信需求,助力OneWeb全球星座部署推进。

基本信息
目录编号:
49194
目录名称:
ONEWEB-0325
国际标识:
2021-083J
轨道中心:
EARTH
卫星名称:
一网星座-0325星
卫星全名:
一网星座-0325星 (ONEWEB-0325 )
卫星状态:
在轨 (已飞行1642 天)
发射日期:
2021-09-14 UTC
国别 :
英国 (GB)
星等 :
--
轨道信息
数据来源 国际轨道数据
星历时间: 2026-03-14T02:17:46+0800
12小时前
查看轨道信息
半长轴: 7567.878km
偏心率: 0.0001748
轨道倾角: 87.924°
近地点辐角 80.320°
升交点赤经 354.419°
平近点角 279.813°
近地点: 1188.418km
远地点: 1191.064km
周期: 109.200分钟
每日圈数: 13.186866
详细信息
平衡模式:
三轴稳定
覆盖范围:
全球
运营商:
一网卫星公司
运营商所在国:
英国
制造商(研发单位):
一网卫星公司
制造商所在国:
英国
使用方式:
暂无
卫星简介
OneWeb卫星网络由648颗重约125公斤的微型卫星组成,运行在1200公里的轨道上。 每颗卫星都能够提供至少每秒8千兆位的吞吐量,以使用其高吞吐量的Ku频段有效载荷为家庭和移动平台提供互联网接入。该卫星仍在工作。
2D轨道图
3D轨道图
轨道高度分析图
轨道倾角分析图
轨道综合分析图
查看轨道综合分析图